Location: Ferchesar
(52.6477°N, 12.4298°E)
Time: 16:49:30
(UTC+01:00)

S-56A Canister/Altair - All Passes

Search period start: 27 February 2021 00:00
Search period end: 09 March 2021 00:00
Orbit: 632 x 2501 km, 38.9° (Epoch: 27 February)

Date Brightness Start Highest point End Pass type
(mag) Time Alt. Az. Time Alt. Az. Time Alt. Az.
27 Feb - 13:02:16 10° SSE 13:10:06 17° SE 13:18:00 10° E daylight
27 Feb - 15:01:07 10° SSW 15:13:42 35° SSE 15:25:34 10° E daylight
27 Feb - 17:04:38 10° WSW 17:18:26 45° S 17:30:03 10° ESE daylight
27 Feb - 19:10:16 10° W 19:23:00 39° SSW 19:32:54 10° SE visible
27 Feb - 21:17:45 10° W 21:26:05 20° SW 21:32:53 10° S visible
28 Feb - 12:30:37 10° SSE 12:37:05 14° SE 12:43:42 10° ESE daylight
28 Feb - 14:28:15 10° SSW 14:40:25 33° SSE 14:52:19 10° E daylight
28 Feb - 16:31:17 10° WSW 16:45:06 45° S 16:57:11 10° ESE daylight
28 Feb - 18:36:37 10° WSW 18:49:51 41° SSW 19:00:22 10° SE visible
28 Feb - 20:43:41 10° W 20:53:16 24° SW 21:01:01 10° S visible
01 Mar - 11:59:38 10° SE 12:04:08 12° SE 12:08:45 10° ESE daylight
01 Mar - 13:55:30 10° SSW 14:07:10 31° SSE 14:18:58 10° E daylight
01 Mar - 15:58:02 10° SW 16:11:44 45° S 16:24:13 10° ESE daylight
01 Mar - 18:03:02 10° WSW 18:16:37 43° SSW 18:27:45 10° SE visible
01 Mar - 20:09:44 10° W 20:20:21 27° SW 20:28:57 10° SSE visible
02 Mar - 13:22:54 10° SSW 13:33:57 28° SE 13:45:30 10° E daylight
02 Mar - 15:24:52 10° SW 15:38:21 44° SSE 15:51:09 10° ESE daylight
02 Mar - 17:29:32 10° WSW 17:43:19 45° S 17:55:03 10° SE daylight
02 Mar - 19:35:53 10° W 19:47:23 30° SW 19:56:45 10° SSE visible
02 Mar - 21:48:39 10° WSW 21:49:36 10° SW 21:50:32 10° SW visible
03 Mar - 12:50:26 10° S 13:00:48 26° SE 13:11:53 10° E daylight
03 Mar - 14:51:49 10° SW 15:04:58 42° SSE 15:18:00 10° E daylight
03 Mar - 16:56:06 10° WSW 17:09:58 46° S 17:22:14 10° ESE daylight
03 Mar - 19:02:07 10° W 19:14:19 33° SSW 19:24:25 10° SSE visible
03 Mar - 21:11:50 10° WSW 21:16:53 13° SW 21:21:29 10° SSW visible
04 Mar - 12:18:09 10° S 12:27:42 23° SE 12:38:08 10° E daylight
04 Mar - 14:18:52 10° SW 14:31:36 41° SSE 14:44:45 10° E daylight
04 Mar - 16:22:46 10° WSW 16:36:35 47° S 16:49:20 10° ESE daylight
04 Mar - 18:28:27 10° W 18:41:10 35° SSW 18:51:58 10° SSE visible
04 Mar - 20:36:59 10° W 20:44:06 16° SW 20:50:24 10° SSW visible
05 Mar - 11:46:03 10° S 11:54:40 21° SE 12:04:11 10° E daylight
05 Mar - 13:46:02 10° SW 13:58:16 39° SSE 14:11:23 10° E daylight
05 Mar - 15:49:31 10° WSW 16:03:11 47° S 16:16:19 10° ESE daylight
05 Mar - 17:54:51 10° W 18:07:57 38° SSW 18:19:23 10° SE daylight
05 Mar - 20:02:36 10° W 20:11:14 19° SW 20:18:49 10° S visible
06 Mar - 11:14:12 10° SSE 11:21:42 18° SE 11:30:02 10° E daylight
06 Mar - 13:13:18 10° SW 13:24:59 37° SSE 13:37:57 10° E daylight
06 Mar - 15:16:22 10° WSW 15:29:45 47° S 15:43:13 10° ESE daylight
06 Mar - 17:21:23 10° W 17:34:41 40° SSW 17:46:42 10° SE daylight
06 Mar - 19:28:29 10° W 19:38:17 22° SW 19:46:55 10° S visible
07 Mar - 10:42:41 10° SSE 10:48:49 15° SE 10:55:35 10° E daylight
07 Mar - 12:40:42 10° SSW 12:51:45 35° SSE 13:04:24 10° E daylight
07 Mar - 14:43:19 10° WSW 14:56:20 47° S 15:10:01 10° ESE daylight
07 Mar - 16:47:58 10° W 17:01:21 42° SSW 17:13:54 10° SE daylight
07 Mar - 18:54:34 10° W 19:05:16 25° SW 19:14:49 10° S visible
08 Mar - 10:11:49 10° SE 10:16:00 12° SE 10:20:31 10° ESE daylight
08 Mar - 12:08:14 10° SSW 12:18:35 32° SSE 12:30:45 10° E daylight
08 Mar - 14:10:21 10° WSW 14:22:57 46° S 14:36:43 10° ESE daylight
08 Mar - 16:14:40 10° WSW 16:27:59 43° SSW 16:40:59 10° SE daylight
08 Mar - 18:20:48 10° W 18:32:11 27° SW 18:42:31 10° SSE visible
